When you browse on this site, cookies collect data to enhance your experience and personalize the content and advertising you see.
Visit our Privacy Policy to learn more. By continuing to use the site, you agree to this use of cookies and data.
  • Em Portugal
  • Lista de países
  • Para 7 dias
  • Temperatura da água
  • Mapa do tempo
  • Widgets de tempo
  • user-avatar
    Iniciar Sessão

    Previsão horária em Crete

    Hoje, 26 Maio, Terça-feira

    Tempo Temperatura Precipitação Vento Pressão Humidade
    00:00 +16°C° 0 mm 1 m/s 710 mmHg 73%
    01:00 +15°C° 0 mm 1 m/s 709 mmHg 74%
    02:00 +15°C° 0 mm 1 m/s 709 mmHg 76%
    03:00 +14°C° 0 mm 1 m/s 709 mmHg 79%
    04:00 +14°C° 0 mm 2 m/s 709 mmHg 83%
    05:00 +14°C° 0 mm 2 m/s 709 mmHg 87%
    06:00 +15°C° 0 mm 2 m/s 709 mmHg 80%
    07:00 +17°C° 0 mm 2 m/s 709 mmHg 74%
    08:00 +18°C° 0 mm 2 m/s 710 mmHg 67%
    09:00 +19°C° 0 mm 2 m/s 710 mmHg 63%
    10:00 +20°C° 0 mm 2 m/s 710 mmHg 60%
    11:00 +21°C° 0 mm 3 m/s 710 mmHg 56%
    12:00 +20°C° 0.1 mm 3 m/s 710 mmHg 60%
    13:00 +20°C° 0.1 mm 2 m/s 710 mmHg 64%
    14:00 +19°C° 0 mm 2 m/s 710 mmHg 69%
    15:00 +19°C° 0.1 mm 2 m/s 709 mmHg 71%
    16:00 +18°C° 0.1 mm 2 m/s 709 mmHg 73%
    17:00 +18°C° 0.1 mm 2 m/s 709 mmHg 75%
    18:00 +17°C° 0.1 mm 2 m/s 709 mmHg 79%
    19:00 +16°C° 0.1 mm 2 m/s 709 mmHg 83%
    20:00 +16°C° 0.1 mm 2 m/s 709 mmHg 87%
    21:00 +15°C° 0 mm 2 m/s 709 mmHg 87%
    22:00 +15°C° 0 mm 2 m/s 709 mmHg 87%
    23:00 +14°C° 0 mm 1 m/s 709 mmHg 87%

    Amanhã, 27 Maio, Quarta-feira

    Tempo Temperatura Precipitação Vento Pressão Humidade
    00:00 +14°C° 0 mm 1 m/s 708 mmHg 86%
    01:00 +13°C° 0 mm 1 m/s 708 mmHg 85%
    02:00 +13°C° 0 mm 1 m/s 708 mmHg 84%
    03:00 +13°C° 0 mm 2 m/s 707 mmHg 83%
    04:00 +12°C° 0 mm 2 m/s 707 mmHg 81%
    05:00 +11°C° 0 mm 3 m/s 707 mmHg 80%
    06:00 +13°C° 0 mm 3 m/s 708 mmHg 72%
    07:00 +14°C° 0 mm 4 m/s 708 mmHg 65%
    08:00 +17°C° 0 mm 4 m/s 708 mmHg 58%
    09:00 +18°C° 0 mm 4 m/s 709 mmHg 54%
    10:00 +19°C° 0 mm 5 m/s 709 mmHg 51%
    11:00 +19°C° 0 mm 6 m/s 710 mmHg 48%
    12:00 +19°C° 0 mm 6 m/s 710 mmHg 49%
    13:00 +19°C° 0 mm 6 m/s 710 mmHg 50%
    14:00 +19°C° 0 mm 6 m/s 710 mmHg 52%
    15:00 +17°C° 0 mm 6 m/s 710 mmHg 54%
    16:00 +17°C° 0 mm 5 m/s 709 mmHg 56%
    17:00 +16°C° 0 mm 5 m/s 709 mmHg 59%
    18:00 +15°C° 0 mm 4 m/s 709 mmHg 64%
    19:00 +13°C° 0 mm 3 m/s 709 mmHg 70%
    20:00 +12°C° 0 mm 3 m/s 709 mmHg 76%
    21:00 +12°C° 0 mm 3 m/s 709 mmHg 79%
    22:00 +11°C° 0 mm 3 m/s 709 mmHg 81%
    23:00 +11°C° 0 mm 3 m/s 709 mmHg 84%

    Depois de amanhã, 28 Maio, Quinta-feira

    Tempo Temperatura Precipitação Vento Pressão Humidade
    00:00 +10°C° 0 mm 3 m/s 709 mmHg 84%
    01:00 +10°C° 0 mm 3 m/s 709 mmHg 85%
    02:00 +10°C° 0 mm 3 m/s 709 mmHg 85%
    03:00 +10°C° 0 mm 3 m/s 709 mmHg 86%
    04:00 +10°C° 0 mm 3 m/s 709 mmHg 87%
    05:00 +10°C° 0 mm 3 m/s 708 mmHg 88%
    06:00 +11°C° 0.1 mm 3 m/s 709 mmHg 81%
    07:00 +13°C° 0.1 mm 4 m/s 709 mmHg 74%
    08:00 +14°C° 0.1 mm 4 m/s 710 mmHg 68%
    09:00 +15°C° 0.1 mm 4 m/s 710 mmHg 63%
    10:00 +17°C° 0.1 mm 4 m/s 710 mmHg 58%
    11:00 +18°C° 0.1 mm 4 m/s 711 mmHg 53%
    12:00 +18°C° 0.2 mm 4 m/s 710 mmHg 53%
    13:00 +18°C° 0.2 mm 4 m/s 710 mmHg 53%
    14:00 +18°C° 0.2 mm 4 m/s 710 mmHg 53%
    15:00 +18°C° 0.1 mm 4 m/s 710 mmHg 53%
    16:00 +18°C° 0.1 mm 4 m/s 710 mmHg 53%
    17:00 +18°C° 0.1 mm 4 m/s 710 mmHg 54%
    18:00 +15°C° 0 mm 4 m/s 710 mmHg 61%
    19:00 +14°C° 0 mm 3 m/s 710 mmHg 68%
    20:00 +13°C° 0 mm 3 m/s 710 mmHg 75%
    21:00 +13°C° 0 mm 2 m/s 710 mmHg 74%
    22:00 +13°C° 0 mm 2 m/s 710 mmHg 74%
    23:00 +12°C° 0 mm 2 m/s 710 mmHg 73%

    29 Maio, Sexta-feira

    Tempo Temperatura Precipitação Vento Pressão Humidade
    00:00 +12°C° 0 mm 2 m/s 710 mmHg 69%
    01:00 +12°C° 0 mm 2 m/s 709 mmHg 65%
    02:00 +12°C° 0 mm 2 m/s 709 mmHg 60%
    03:00 +12°C° 0 mm 2 m/s 709 mmHg 61%
    04:00 +12°C° 0 mm 2 m/s 709 mmHg 62%
    05:00 +10°C° 0 mm 2 m/s 709 mmHg 63%
    06:00 +14°C° 0 mm 2 m/s 709 mmHg 56%
    07:00 +16°C° 0 mm 2 m/s 709 mmHg 48%
    08:00 +18°C° 0 mm 2 m/s 710 mmHg 41%
    09:00 +19°C° 0 mm 3 m/s 710 mmHg 40%
    10:00 +20°C° 0 mm 3 m/s 710 mmHg 40%
    11:00 +21°C° 0 mm 4 m/s 710 mmHg 39%
    12:00 +21°C° 0 mm 4 m/s 710 mmHg 43%
    13:00 +21°C° 0 mm 5 m/s 710 mmHg 46%
    14:00 +21°C° 0 mm 5 m/s 710 mmHg 50%
    15:00 +20°C° 0.1 mm 5 m/s 710 mmHg 53%
    16:00 +19°C° 0.1 mm 5 m/s 710 mmHg 57%
    17:00 +19°C° 0.1 mm 5 m/s 709 mmHg 61%
    18:00 +17°C° 0 mm 4 m/s 709 mmHg 68%
    19:00 +15°C° 0 mm 4 m/s 709 mmHg 75%
    20:00 +14°C° 0 mm 3 m/s 709 mmHg 82%
    21:00 +14°C° 0 mm 3 m/s 709 mmHg 83%
    22:00 +14°C° 0 mm 2 m/s 709 mmHg 84%
    23:00 +14°C° 0 mm 2 m/s 709 mmHg 84%

    30 Maio, Sábado

    Tempo Temperatura Precipitação Vento Pressão Humidade
    00:00 +14°C° 0 mm 2 m/s 709 mmHg 81%
    01:00 +13°C° 0 mm 2 m/s 709 mmHg 78%
    02:00 +13°C° 0 mm 2 m/s 708 mmHg 74%
    03:00 +13°C° 0 mm 2 m/s 708 mmHg 76%
    04:00 +12°C° 0 mm 2 m/s 708 mmHg 78%
    05:00 +12°C° 0 mm 2 m/s 708 mmHg 79%
    06:00 +14°C° 0 mm 2 m/s 708 mmHg 73%
    07:00 +16°C° 0 mm 2 m/s 709 mmHg 66%
    08:00 +17°C° 0 mm 2 m/s 709 mmHg 59%
    09:00 +18°C° 0 mm 3 m/s 709 mmHg 54%
    10:00 +20°C° 0 mm 4 m/s 710 mmHg 50%
    11:00 +21°C° 0 mm 4 m/s 710 mmHg 45%
    12:00 +20°C° 0 mm 5 m/s 710 mmHg 49%
    13:00 +20°C° 0 mm 5 m/s 710 mmHg 52%
    14:00 +20°C° 0 mm 5 m/s 710 mmHg 56%
    15:00 +20°C° 0.1 mm 5 m/s 710 mmHg 57%
    16:00 +19°C° 0.1 mm 5 m/s 710 mmHg 58%
    17:00 +19°C° 0.1 mm 5 m/s 710 mmHg 59%
    18:00 +18°C° 0 mm 4 m/s 710 mmHg 65%
    19:00 +17°C° 0 mm 3 m/s 709 mmHg 71%
    20:00 +14°C° 0 mm 3 m/s 709 mmHg 77%
    21:00 +15°C° 0 mm 2 m/s 709 mmHg 79%
    22:00 +15°C° 0 mm 2 m/s 709 mmHg 80%
    23:00 +14°C° 0 mm 2 m/s 709 mmHg 82%

    31 Maio, Domingo

    Tempo Temperatura Precipitação Vento Pressão Humidade
    00:00 +14°C° 0 mm 1 m/s 709 mmHg 81%
    01:00 +14°C° 0 mm 1 m/s 709 mmHg 79%
    02:00 +14°C° 0 mm 1 m/s 708 mmHg 78%
    03:00 +13°C° 0 mm 1 m/s 708 mmHg 79%
    04:00 +13°C° 0 mm 2 m/s 708 mmHg 80%
    05:00 +13°C° 0 mm 2 m/s 708 mmHg 81%
    06:00 +15°C° 0 mm 2 m/s 709 mmHg 73%
    07:00 +17°C° 0 mm 2 m/s 709 mmHg 66%
    08:00 +18°C° 0 mm 2 m/s 710 mmHg 59%
    09:00 +20°C° 0 mm 2 m/s 710 mmHg 54%
    10:00 +21°C° 0 mm 3 m/s 710 mmHg 48%
    11:00 +22°C° 0 mm 3 m/s 711 mmHg 43%
    12:00 +22°C° 0 mm 4 m/s 710 mmHg 45%
    13:00 +22°C° 0 mm 4 m/s 710 mmHg 47%
    14:00 +22°C° 0 mm 4 m/s 710 mmHg 49%
    15:00 +21°C° 0 mm 4 m/s 710 mmHg 52%
    16:00 +20°C° 0 mm 4 m/s 710 mmHg 55%
    17:00 +19°C° 0 mm 4 m/s 709 mmHg 58%
    18:00 +18°C° 0 mm 3 m/s 709 mmHg 62%
    19:00 +17°C° 0 mm 3 m/s 709 mmHg 67%
    20:00 +16°C° 0 mm 3 m/s 709 mmHg 71%
    21:00 +16°C° 0 mm 2 m/s 709 mmHg 73%
    22:00 +15°C° 0 mm 2 m/s 709 mmHg 75%
    23:00 +14°C° 0 mm 1 m/s 709 mmHg 77%
    Mostrar mais